TimeCST,TemperatureF,Dew PointF,Humidity,Sea Level PressureIn,VisibilityMPH,Wind Direction,Wind SpeedMPH,Gust SpeedMPH,PrecipitationIn,Events,Conditions,WindDirDegrees,DateUTC
12:21 AM,73.4,69.8,88,29.69,7.0,SSE,18.4,26.5,N/A,,Scattered Clouds,150,2013-01-13 06:21:00
12:53 AM,73.9,68.0,82,29.70,7.0,SSE,9.2,-,N/A,,Clear,160,2013-01-13 06:53:00
1:53 AM,72.0,68.0,87,29.72,6.0,Calm,Calm,-,N/A,,Partly Cloudy,0,2013-01-13 07:53:00
2:09 AM,71.6,68.0,88,29.73,6.0,Calm,Calm,-,N/A,,Mostly Cloudy,0,2013-01-13 08:09:00
2:36 AM,71.6,68.0,88,29.74,5.0,West,6.9,-,N/A,,Overcast,270,2013-01-13 08:36:00
2:53 AM,70.0,64.9,84,29.74,8.0,WNW,10.4,20.7,N/A,,Overcast,290,2013-01-13 08:53:00
3:53 AM,66.0,57.0,73,29.78,10.0,WNW,13.8,20.7,N/A,,Overcast,300,2013-01-13 09:53:00
4:01 AM,64.4,55.4,73,29.79,10.0,NW,16.1,25.3,N/A,,Overcast,320,2013-01-13 10:01:00
4:53 AM,64.9,54.0,68,29.81,10.0,NW,15.0,21.9,N/A,,Overcast,310,2013-01-13 10:53:00
5:53 AM,63.0,51.1,65,29.87,10.0,NNW,20.7,28.8,N/A,,Overcast,330,2013-01-13 11:53:00
6:53 AM,61.0,46.0,58,29.92,10.0,NNW,20.7,28.8,N/A,,Overcast,330,2013-01-13 12:53:00
7:12 AM,60.8,46.4,59,29.94,10.0,NNW,18.4,27.6,N/A,,Overcast,340,2013-01-13 13:12:00
7:53 AM,61.0,46.0,58,29.97,10.0,NNW,20.7,27.6,N/A,,Overcast,330,2013-01-13 13:53:00
8:24 AM,60.8,42.8,52,30.00,10.0,NNW,18.4,25.3,N/A,,Overcast,340,2013-01-13 14:24:00
8:37 AM,60.8,42.8,52,30.01,10.0,NNW,16.1,26.5,N/A,,Overcast,340,2013-01-13 14:37:00
8:53 AM,60.1,42.1,51,30.03,10.0,NNW,15.0,20.7,N/A,,Overcast,340,2013-01-13 14:53:00
9:53 AM,59.0,37.0,44,30.06,10.0,NNW,20.7,28.8,N/A,,Overcast,330,2013-01-13 15:53:00
10:53 AM,59.0,34.0,39,30.08,10.0,NW,20.7,26.5,N/A,,Overcast,320,2013-01-13 16:53:00
11:53 AM,59.0,30.9,35,30.06,10.0,NNW,19.6,27.6,N/A,,Scattered Clouds,340,2013-01-13 17:53:00
12:53 PM,59.0,32.0,36,30.05,10.0,NNW,13.8,27.6,N/A,,Clear,330,2013-01-13 18:53:00
1:53 PM,59.0,32.0,36,30.05,10.0,NW,13.8,23.0,N/A,,Clear,320,2013-01-13 19:53:00
2:53 PM,60.1,30.9,33,30.04,10.0,NNW,12.7,20.7,N/A,,Clear,330,2013-01-13 20:53:00
3:53 PM,61.0,32.0,34,30.04,10.0,North,10.4,-,N/A,,Clear,350,2013-01-13 21:53:00
4:53 PM,61.0,30.0,31,30.04,10.0,North,10.4,-,N/A,,Clear,360,2013-01-13 22:53:00
5:53 PM,59.0,30.9,35,30.07,10.0,NNW,6.9,-,N/A,,Clear,340,2013-01-13 23:53:00
6:53 PM,57.0,33.1,40,30.07,10.0,NW,4.6,-,N/A,,Clear,320,2013-01-14 00:53:00
7:53 PM,55.9,34.0,44,30.09,10.0,WNW,6.9,-,N/A,,Clear,300,2013-01-14 01:53:00
8:53 PM,55.9,35.1,45,30.08,10.0,NW,6.9,-,N/A,,Overcast,320,2013-01-14 02:53:00
9:53 PM,55.9,33.1,42,30.09,10.0,NNW,8.1,-,N/A,,Overcast,340,2013-01-14 03:53:00
10:53 PM,55.9,33.1,42,30.08,10.0,North,8.1,-,N/A,,Overcast,360,2013-01-14 04:53:00
11:53 PM,55.9,32.0,40,30.09,10.0,North,6.9,-,N/A,,Overcast,10,2013-01-14 05:53:00